Showing default

ICEYE-X57, 64578

Orbit data source: Space-Track

ICEYE-X57, 64578 is a payload satellite owned by ICEYE US (US) in SSO that was launched on Mon, 23 Jun 2025 UTC via an FALCON 9 launch vehicle from the Air Force Western Test Range (AFWTR). Payload-class satellites include a variety of spacecraft equipped with specific instruments for various scientific and technological missions. These include communications satellites like Starlink; space stations such as the ISS; scientific satellites like the Hubble; Earth observation satellites from companies like Planet Labs, Umbra, and HawkEye 360; GPS; miniature CubeSats for education and research; and military/defense satellites.

Loading next visibility...
Identifier
64578, 2025-135BC
Orbit
SSO
Country
Flag of USUS
Related business
Manufacturer
ICEYE
Mission
Operational Commercial Radar Imaging
Bus & Motor
ICEYE, Unknown motor
Mass
80 kg wet, 80 kg dry
Launch date (UTC)
2025-06-23 (1 year ago)
Launch vehicle
FALCON 9
Launch site
Air Force Western Test Range (AFWTR)
Object type
Payload
Rocket body
Debris
Shape & HBR
Box + 1 Pan, 0.8 m
Radar Cross Section
0.776 m², Medium (>0.1 m² and < 1m²)

Expand to show TLE details & history
Last TLE update: 9 hours ago

TLE from 9 hours ago
0 ICEYE-X57
1 64578U 25135BC  26171.46678061  .00003459  00000-0  27669-3 0  9995
2 64578  97.7955 287.9381 0001964  60.9521 299.1899 15.00873284 54515
Epoch: 2026-06-20T11:12Z
TLE epoch observation values (Epoch: 2026-06-20T11:12:09.844Z)
Latitude
-0.00005°
Longitude
-148.7839°
Altitude
566.59 km
Speed
7.578 km/s
True Right ascension
19h 11m 45s
True Declination
0° 00' 00"
Sunlit
Object was in full shadow at epoch
Visualization orbit readout
Latitude
Unknown
Longitude
Unknown
Altitude
Unknown
Speed
Unknown
Apparent Right ascension
Unknown
Apparent Declination
Unknown
Sunlit
N/A
Visualization observer readout
Local Sidereal Time
07:22:49
Azimuth
Unknown
Elevation
Unknown
Doppler factor
Unknown
Orbital elements
Apogee altitude
562.573 km
Perigee altitude
559.848 km
Semi-major axis
6,939.347 km
Eccentricity
0.0002
Inclination
97.7955°
RAAN
287.9381°
Arg. of periapsis
60.9521°
True anomaly
299.17025°
Mean anomaly
299.1899°
Eccentric anomaly
299.18008°
Mean motion
3.75461 °/min
Orbital period
95.88 mins
BSTAR
0.00027669
Loading maneuver chart data...
Computing Atmospheric mass density...
Loading historical data...
Loading historical data...
Loading historical data...
Loading historical data...
Loading historical data...
Loading historical data...
Loading historical data...

Documentation

Showing up to 5 results
|